Regional Weather Roundup
Issued by NWS Northern Indiana

Home | Current Version | Previous Version | Text Only | Print | Product List | Glossary Off
Versions: 1 2 3 4 5 6 7 8 9 10 11 12 13 14 15 16 17 18 19 20 21 22 23 24 25 26 27 28 29 30 31 32 33 34 35 36 37 38 39 40 41 42 43 44 45 46 47 48 49 50

000
ASUS43 KIWX 191401
RWRIWX

KIWX WEATHER ROUNDUP
NATIONAL WEATHER SERVICE NORTHERN INDIANA
1000 AM EDT TUE SEP 19 2017

NOTE: "FAIR" INDICATES FEW OR NO CLOUDS BELOW 12,000 FEET WITH NO
SIGNIFICANT WEATHER AND/OR OBSTRUCTIONS TO VISIBILITY.

* THESE STATIONS ARE NOT UNDER NWS QUALITY CONTROL. THEY ALSO MAY NOT
  REPORT WEATHER SUCH AS PRECIPITATION OR FOG.

INZ001>027-191500-
NORTHERN INDIANA

CITY           SKY/WX    TMP DP  RH WIND       PRES   REMARKS
GARY*          PTSUNNY   70  70 100 CALM      29.96R FOG
VALPARAISO     LGT RAIN  68  67  96 NE6       29.96R FOG
SOUTH BEND     CLOUDY    68  67  96 NE5       29.97R
ELKHART*       CLOUDY    66  64  94 NE5       29.97R
GOSHEN         CLOUDY    68  64  87 SE6       29.96R
FORT WAYNE     CLOUDY    69  67  93 CALM      29.97S FOG
PERU/GRISSOM   DRIZZLE   70  70 100 SW6       29.95S FOG

$$
INZ028>050-191500-
CENTRAL INDIANA

CITY           SKY/WX    TMP DP  RH WIND       PRES   REMARKS
LAFAYETTE      CLOUDY    68  68 100 W3        29.95R
KOKOMO*        CLOUDY    70  68  93 SW7       29.97R
MUNCIE*        MOSUNNY   72  68  87 S5        29.97R
INDIANAPOLIS   CLOUDY    68  67  96 S7        29.96F

$$
MIZ043>046-050>051-056>058-064>065-071>073-077>080-191500-
SOUTHWEST LOWER MICHIGAN

CITY           SKY/WX    TMP DP  RH WIND       PRES   REMARKS
BATTLE CREEK   CLOUDY    63  62  97 E10       29.98F FOG
BENTON HARBOR    N/A     69  65  86 E8        29.95S
COLDWATER*     CLOUDY    65  65 100 E8        29.98S FOG
HILLSDALE*     HVY RAIN  63  61  94 E8        30.01R
HOLLAND        CLOUDY    64  60  87 E8        29.99R
GRAND RAPIDS   CLOUDY    62  53  72 NE12      30.00S
KALAMAZOO      CLOUDY    66  63  90 NE3       29.97S FOG
STURGIS*       CLOUDY    65  65  98 E7        29.97R FOG
THREE RIVERS*  CLOUDY    67  67  97 E5        29.97R FOG

$$
OHZ001>008-015>018-024>025-191500-
NORTHWEST OHIO

CITY           SKY/WX    TMP DP  RH WIND       PRES   REMARKS
DEFIANCE       RAIN      66  65  96 NE5       29.99R FOG
FINDLAY        HVY RAIN  69  64  84 W13G23    29.99R VSB 1/2
TOLEDO EXPRESS TSTM      67  32  27 CALM      29.99R
TOLEDO METCALF CLOUDY    70  68  93 NE6       30.00R FOG
LIMA           LGT RAIN  69  68  96 VRB3      29.99S

$$
AND FOR LAKE MICHIGAN COASTAL AND OPEN LAKE BUOY OBSERVATIONS

STATION/POSITION TEMP    WIND        PRES    VSBY  WAVE
                 AIR SEA DIR/SP/G                  HT/PER
                 (F)     (DEG/KT/KT) (MB)    (MI)  (FT/S)
CALUMET HARBOR    67      70/  6/  8 1013.8
MICHIGAN CITY     67      80/  5/  5   N/A
BURNS HARBOR      67     350/  2/  3 1014.9R
SAINT JOSEPH      67      40/  2/  4 1015.2
SOUTH LAKE BUOY   67 68   80/ 12/ 14 1014.7          2/ 4
4 MI NW BRIDGMAN  67 68  110/  4/  4 1014.3R         1
MICHIGAN CITY     68 68  120/  2/  4   N/A           1/ 4

$$
&&




USA.gov is the U.S. government's official web portal to all federal, state and local government web resources and services.